Location: Cisewo
(53.3833°N, 14.9000°E)
Time: 12:05:16
(UTC+00:00)

Meteor 2-21 Rocket - Pass Details

Date: 18 April 2021
Orbit: 935 x 968 km, 82.5° (Epoch: 14 May)

Event Time Altitude Azimuth Distance (km) Brightness Sun altitude
Rises 20:03:22 0° 348° (NNW) 3,609 8.5 -15.4°
Reaches altitude 10° 20:05:52 10° 349° (NNW) 2,659 7.7 -15.7°
Maximum altitude 20:11:57 90° 266° (W) 944 4.4 -16.3°
Enters shadow 20:16:20 20° 171° (S) 2,028 5.7 -16.7°
